Time,TemperatureF,DewpointF,PressureIn,WindDirection,WindDirectionDegrees,WindSpeedMPH,WindSpeedGustMPH,Humidity,HourlyPrecipIn,Conditions,Clouds,dailyrainin,SoftwareType,DateUTC
2013-05-03 00:14:00,40.4,38.0,29.74,NNW,346,2.0,6.0,91,0.00,,,0.00,weatherlink.com 1.10,2013-05-03 09:14:00,
2013-05-03 00:29:00,40.7,38.0,29.74,ESE,115,9.0,11.0,91,0.00,,,0.00,weatherlink.com 1.10,2013-05-03 09:29:00,
2013-05-03 00:44:00,41.3,39.0,29.73,SE,131,3.0,10.0,91,0.00,,,0.00,weatherlink.com 1.10,2013-05-03 09:44:00,
2013-05-03 00:59:00,41.4,39.0,29.74,East,86,2.0,8.0,91,0.00,,,0.00,weatherlink.com 1.10,2013-05-03 09:59:00,
2013-05-03 01:14:00,41.1,38.0,29.74,SSE,168,0.0,9.0,90,0.00,,,0.00,weatherlink.com 1.10,2013-05-03 10:14:00,
2013-05-03 01:29:00,41.6,39.0,29.73,ESE,109,6.0,9.0,90,0.00,,,0.00,weatherlink.com 1.10,2013-05-03 10:29:00,
2013-05-03 01:44:00,41.7,39.0,29.74,SE,143,4.0,13.0,90,0.00,,,0.00,weatherlink.com 1.10,2013-05-03 10:44:00,
2013-05-03 01:59:00,41.5,39.0,29.74,East,90,3.0,15.0,90,0.00,,,0.00,weatherlink.com 1.10,2013-05-03 10:59:00,
2013-05-03 02:14:00,41.6,39.0,29.74,SE,144,4.0,12.0,90,0.00,,,0.00,weatherlink.com 1.10,2013-05-03 11:14:00,
2013-05-03 02:29:00,41.8,39.0,29.74,SE,125,8.0,16.0,90,0.00,,,0.00,weatherlink.com 1.10,2013-05-03 11:29:00,
2013-05-03 02:44:00,41.6,39.0,29.74,ESE,116,6.0,15.0,90,0.00,,,0.00,weatherlink.com 1.10,2013-05-03 11:44:00,
2013-05-03 02:59:00,41.7,39.0,29.74,SE,132,4.0,15.0,90,0.00,,,0.00,weatherlink.com 1.10,2013-05-03 11:59:00,
2013-05-03 03:15:00,41.8,39.0,29.74,SE,146,6.0,18.0,90,0.00,,,0.00,weatherlink.com 1.10,2013-05-03 12:15:00,
2013-05-03 03:29:00,42.0,39.0,29.74,SE,129,9.0,14.0,89,0.00,,,0.00,weatherlink.com 1.10,2013-05-03 12:29:00,
2013-05-03 03:44:00,41.9,39.0,29.75,SE,131,5.0,10.0,89,0.00,,,0.00,weatherlink.com 1.10,2013-05-03 12:44:00,
2013-05-03 03:59:00,41.9,39.0,29.75,ESE,122,18.0,18.0,89,0.00,,,0.00,weatherlink.com 1.10,2013-05-03 12:59:00,
2013-05-03 04:14:00,41.9,39.0,29.75,SE,146,7.0,13.0,88,0.00,,,0.00,weatherlink.com 1.10,2013-05-03 13:14:00,
2013-05-03 04:29:00,41.9,39.0,29.75,SE,136,9.0,14.0,88,0.00,,,0.00,weatherlink.com 1.10,2013-05-03 13:29:00,
2013-05-03 04:44:00,41.9,39.0,29.75,SSE,157,7.0,13.0,89,0.00,,,0.00,weatherlink.com 1.10,2013-05-03 13:44:00,
2013-05-03 04:59:00,41.5,39.0,29.75,East,99,5.0,9.0,90,0.00,,,0.00,weatherlink.com 1.10,2013-05-03 13:59:00,
2013-05-03 05:15:00,41.6,39.0,29.75,SE,125,5.0,12.0,90,0.00,,,0.00,weatherlink.com 1.10,2013-05-03 14:15:00,
2013-05-03 05:30:00,41.7,39.0,29.75,ESE,122,6.0,9.0,89,0.00,,,0.00,weatherlink.com 1.10,2013-05-03 14:30:00,
2013-05-03 05:45:00,41.7,39.0,29.75,ESE,117,3.0,10.0,90,0.00,,,0.00,weatherlink.com 1.10,2013-05-03 14:45:00,
2013-05-03 06:00:00,41.6,39.0,29.75,East,100,3.0,9.0,90,0.00,,,0.00,weatherlink.com 1.10,2013-05-03 15:00:00,
2013-05-03 06:15:00,41.5,39.0,29.76,SE,126,5.0,9.0,91,0.00,,,0.00,weatherlink.com 1.10,2013-05-03 15:15:00,
2013-05-03 06:30:00,41.4,39.0,29.76,SE,136,5.0,7.0,91,0.00,,,0.00,weatherlink.com 1.10,2013-05-03 15:30:00,
2013-05-03 06:45:00,41.3,39.0,29.77,ESE,122,5.0,7.0,92,0.00,,,0.00,weatherlink.com 1.10,2013-05-03 15:45:00,
2013-05-03 07:00:00,41.0,39.0,29.77,SSW,194,2.0,6.0,92,0.00,,,0.00,weatherlink.com 1.10,2013-05-03 16:00:00,
2013-05-03 07:15:00,40.8,39.0,29.78,SSW,194,1.0,3.0,93,0.00,,,0.00,weatherlink.com 1.10,2013-05-03 16:15:00,
2013-05-03 07:30:00,39.2,37.0,29.79,WSW,237,10.0,16.0,92,0.00,,,0.00,weatherlink.com 1.10,2013-05-03 16:30:00,
2013-05-03 07:45:00,37.9,36.0,29.80,WSW,248,13.0,15.0,92,0.00,,,0.00,weatherlink.com 1.10,2013-05-03 16:45:00,
2013-05-03 08:00:00,37.3,36.0,29.81,West,264,2.0,8.0,93,0.00,,,0.00,weatherlink.com 1.10,2013-05-03 17:00:00,
2013-05-03 08:15:00,37.1,35.0,29.81,NE,46,3.0,6.0,93,0.00,,,0.00,weatherlink.com 1.10,2013-05-03 17:15:00,
2013-05-03 08:30:00,36.8,35.0,29.81,ENE,61,5.0,9.0,93,0.00,,,0.00,weatherlink.com 1.10,2013-05-03 17:30:00,
2013-05-03 08:45:00,36.9,35.0,29.82,NE,46,0.0,9.0,93,0.00,,,0.00,weatherlink.com 1.10,2013-05-03 17:45:00,
2013-05-03 09:00:00,37.0,35.0,29.82,NE,43,0.0,8.0,93,0.00,,,0.00,weatherlink.com 1.10,2013-05-03 18:00:00,
2013-05-03 09:15:00,37.3,36.0,29.82,NNW,346,5.0,6.0,93,0.00,,,0.00,weatherlink.com 1.10,2013-05-03 18:15:00,
2013-05-03 09:30:00,37.7,36.0,29.83,NNW,346,3.0,5.0,93,0.00,,,0.00,weatherlink.com 1.10,2013-05-03 18:30:00,
2013-05-03 09:45:00,37.9,36.0,29.83,NNE,31,1.0,5.0,93,0.00,,,0.00,weatherlink.com 1.10,2013-05-03 18:45:00,
2013-05-03 10:01:00,37.9,36.0,29.84,North,355,4.0,5.0,93,0.00,,,0.00,weatherlink.com 1.10,2013-05-03 19:01:00,
2013-05-03 10:16:00,37.9,36.0,29.84,ENE,57,2.0,5.0,93,0.00,,,0.00,weatherlink.com 1.10,2013-05-03 19:16:00,
2013-05-03 10:31:00,38.1,36.0,29.85,East,92,1.0,3.0,93,0.00,,,0.00,weatherlink.com 1.10,2013-05-03 19:31:00,
2013-05-03 10:46:00,38.2,36.0,29.84,East,92,2.0,4.0,93,0.00,,,0.00,weatherlink.com 1.10,2013-05-03 19:46:00,
2013-05-03 11:01:00,38.7,37.0,29.85,East,92,0.0,2.0,93,0.00,,,0.00,weatherlink.com 1.10,2013-05-03 20:01:00,
2013-05-03 11:16:00,39.5,38.0,29.85,East,92,0.0,0.0,93,0.00,,,0.00,weatherlink.com 1.10,2013-05-03 20:16:00,
2013-05-03 11:31:00,40.0,38.0,29.85,East,92,2.0,4.0,92,0.00,,,0.00,weatherlink.com 1.10,2013-05-03 20:31:00,
2013-05-03 11:46:00,40.0,38.0,29.85,NW,306,5.0,5.0,91,0.00,,,0.00,weatherlink.com 1.10,2013-05-03 20:46:00,
2013-05-03 12:01:00,40.1,38.0,29.86,NW,305,2.0,5.0,90,0.00,,,0.00,weatherlink.com 1.10,2013-05-03 21:01:00,
2013-05-03 12:16:00,41.1,38.0,29.86,NW,305,0.0,2.0,90,0.00,,,0.00,weatherlink.com 1.10,2013-05-03 21:16:00,
2013-05-03 12:31:00,41.5,37.0,29.86,SSW,201,2.0,7.0,84,0.00,,,0.00,weatherlink.com 1.10,2013-05-03 21:31:00,
2013-05-03 12:46:00,42.0,36.0,29.86,WSW,256,5.0,8.0,80,0.00,,,0.00,weatherlink.com 1.10,2013-05-03 21:46:00,
2013-05-03 13:01:00,40.9,36.0,29.86,SW,235,5.0,11.0,83,0.00,,,0.00,weatherlink.com 1.10,2013-05-03 22:01:00,
2013-05-03 13:16:00,41.2,36.0,29.87,West,266,6.0,9.0,82,0.00,,,0.00,weatherlink.com 1.10,2013-05-03 22:16:00,
2013-05-03 13:31:00,40.7,35.0,29.87,SW,221,6.0,11.0,81,0.00,,,0.00,weatherlink.com 1.10,2013-05-03 22:31:00,
2013-05-03 13:46:00,41.0,35.0,29.87,SSW,210,1.0,8.0,78,0.00,,,0.00,weatherlink.com 1.10,2013-05-03 22:46:00,
2013-05-03 14:01:00,41.1,33.0,29.88,SW,226,6.0,10.0,72,0.00,,,0.00,weatherlink.com 1.10,2013-05-03 23:01:00,
2013-05-03 14:16:00,41.0,31.0,29.88,SSW,203,2.0,7.0,68,0.00,,,0.00,weatherlink.com 1.10,2013-05-03 23:16:00,
2013-05-03 14:31:00,41.3,30.0,29.89,SSW,203,5.0,6.0,64,0.00,,,0.00,weatherlink.com 1.10,2013-05-03 23:31:00,
2013-05-03 14:46:00,41.9,30.0,29.88,SSW,210,3.0,5.0,62,0.00,,,0.00,weatherlink.com 1.10,2013-05-03 23:46:00,
2013-05-03 15:02:00,41.4,32.0,29.88,NNW,342,4.0,8.0,68,0.00,,,0.00,weatherlink.com 1.10,2013-05-04 00:02:00,
2013-05-03 15:17:00,41.4,32.0,29.88,NNW,330,1.0,6.0,70,0.00,,,0.00,weatherlink.com 1.10,2013-05-04 00:17:00,
2013-05-03 15:32:00,41.6,31.0,29.88,NNW,329,4.0,7.0,67,0.00,,,0.00,weatherlink.com 1.10,2013-05-04 00:32:00,
2013-05-03 15:47:00,41.4,32.0,29.88,West,280,6.0,8.0,69,0.00,,,0.00,weatherlink.com 1.10,2013-05-04 00:47:00,
2013-05-03 16:02:00,41.1,32.0,29.88,WNW,283,5.0,8.0,69,0.00,,,0.00,weatherlink.com 1.10,2013-05-04 01:02:00,
2013-05-03 16:17:00,41.3,30.0,29.88,West,281,5.0,8.0,65,0.00,,,0.00,weatherlink.com 1.10,2013-05-04 01:17:00,
2013-05-03 16:32:00,41.6,31.0,29.88,WNW,290,4.0,7.0,65,0.00,,,0.00,weatherlink.com 1.10,2013-05-04 01:32:00,
2013-05-03 16:47:00,41.9,30.0,29.87,SW,227,3.0,8.0,64,0.00,,,0.00,weatherlink.com 1.10,2013-05-04 01:47:00,
2013-05-03 17:02:00,41.7,30.0,29.88,WSW,247,5.0,6.0,63,0.00,,,0.00,weatherlink.com 1.10,2013-05-04 02:02:00,
2013-05-03 17:17:00,41.1,29.0,29.88,SSW,197,6.0,8.0,62,0.00,,,0.00,weatherlink.com 1.10,2013-05-04 02:17:00,
2013-05-03 17:32:00,40.8,29.0,29.88,SSW,202,1.0,10.0,62,0.00,,,0.00,weatherlink.com 1.10,2013-05-04 02:32:00,
2013-05-03 17:47:00,41.0,29.0,29.88,SSW,211,5.0,8.0,62,0.00,,,0.00,weatherlink.com 1.10,2013-05-04 02:47:00,
2013-05-03 18:02:00,40.7,30.0,29.88,WNW,294,0.0,6.0,65,0.00,,,0.00,weatherlink.com 1.10,2013-05-04 03:02:00,
2013-05-03 18:17:00,40.6,30.0,29.88,WNW,300,1.0,6.0,65,0.00,,,0.00,weatherlink.com 1.10,2013-05-04 03:17:00,
2013-05-03 18:32:00,40.8,28.0,29.87,South,171,6.0,6.0,61,0.00,,,0.00,weatherlink.com 1.10,2013-05-04 03:32:00,
2013-05-03 18:47:00,40.8,29.0,29.88,SSE,163,8.0,8.0,62,0.00,,,0.00,weatherlink.com 1.10,2013-05-04 03:47:00,
2013-05-03 19:02:00,40.5,28.0,29.87,SSE,154,5.0,8.0,61,0.00,,,0.00,weatherlink.com 1.10,2013-05-04 04:02:00,
2013-05-03 19:17:00,40.7,29.0,29.87,South,173,4.0,6.0,63,0.00,,,0.00,weatherlink.com 1.10,2013-05-04 04:17:00,
2013-05-03 19:32:00,40.6,28.0,29.86,West,268,1.0,5.0,61,0.00,,,0.00,weatherlink.com 1.10,2013-05-04 04:32:00,
2013-05-03 19:47:00,40.5,28.0,29.87,SW,222,7.0,7.0,62,0.00,,,0.00,weatherlink.com 1.10,2013-05-04 04:47:00,
2013-05-03 20:02:00,40.3,28.0,29.87,SW,225,4.0,6.0,61,0.00,,,0.00,weatherlink.com 1.10,2013-05-04 05:02:00,
2013-05-03 20:17:00,40.1,29.0,29.87,West,261,2.0,6.0,64,0.00,,,0.00,weatherlink.com 1.10,2013-05-04 05:17:00,
2013-05-03 20:32:00,39.8,29.0,29.87,WSW,258,2.0,7.0,65,0.00,,,0.00,weatherlink.com 1.10,2013-05-04 05:32:00,
2013-05-03 20:47:00,39.8,29.0,29.86,WSW,244,0.0,4.0,66,0.00,,,0.00,weatherlink.com 1.10,2013-05-04 05:47:00,
2013-05-03 21:02:00,39.7,29.0,29.87,West,276,4.0,5.0,67,0.00,,,0.00,weatherlink.com 1.10,2013-05-04 06:02:00,
2013-05-03 21:17:00,39.4,30.0,29.87,WSW,245,1.0,6.0,68,0.00,,,0.00,weatherlink.com 1.10,2013-05-04 06:17:00,
2013-05-03 21:32:00,39.3,29.0,29.88,SSW,194,2.0,7.0,67,0.00,,,0.00,weatherlink.com 1.10,2013-05-04 06:32:00,
2013-05-03 21:47:00,39.5,29.0,29.87,South,172,0.0,7.0,67,0.00,,,0.00,weatherlink.com 1.10,2013-05-04 06:47:00,
2013-05-03 22:02:00,39.0,30.0,29.87,SE,126,0.0,4.0,69,0.00,,,0.00,weatherlink.com 1.10,2013-05-04 07:02:00,
2013-05-03 22:17:00,38.9,30.0,29.87,SE,126,0.0,2.0,70,0.00,,,0.00,weatherlink.com 1.10,2013-05-04 07:17:00,
2013-05-03 22:32:00,38.9,31.0,29.87,SE,126,1.0,5.0,73,0.00,,,0.00,weatherlink.com 1.10,2013-05-04 07:32:00,
2013-05-03 22:47:00,38.6,31.0,29.86,SE,126,2.0,3.0,75,0.00,,,0.00,weatherlink.com 1.10,2013-05-04 07:47:00,
2013-05-03 23:02:00,38.1,31.0,29.86,SE,126,0.0,1.0,76,0.00,,,0.00,weatherlink.com 1.10,2013-05-04 08:02:00,
2013-05-03 23:17:00,37.5,31.0,29.86,SE,126,1.0,2.0,76,0.00,,,0.00,weatherlink.com 1.10,2013-05-04 08:17:00,
2013-05-03 23:32:00,37.3,31.0,29.85,ESE,111,5.0,6.0,77,0.00,,,0.00,weatherlink.com 1.10,2013-05-04 08:32:00,
2013-05-03 23:47:00,37.2,31.0,29.85,SE,133,7.0,8.0,78,0.00,,,0.00,weatherlink.com 1.10,2013-05-04 08:47:00,